Home   Weather   Oberlin   Past weeks

Flag for USA Past Weather in Oberlin, Ohio, USA — Yesterday and Last 2 Weeks

Now
36 °F

Clear.


Feels Like: 36 °F
Forecast: 35 / 63 °F
Wind: No wind

Location: Lorain County Regional Airport

Current Time: Apr 23, 2017 at 6:04:48 am

Latest Report: Apr 23, 2017 at 4:53 am


Visibility: 10 mi

Pressure: 30.11 "Hg

Humidity: 82%

Dew Point: 31 °F

Location of OberlinLocation

Past Weather in Oberlin — Graph

°F

Oberlin Temperature Yesterday

Maximum temperature yesterday: 51 °F (at 5:53 pm)
Minimum temperature yesterday: 40 °F (at 11:53 pm)
Average temperature yesterday: 45 °F

High & Low Weather Summary for the Past Weeks

 TemperatureHumidityPressure
High80 °F (Apr 15, 4:53 pm)96% (Apr 20, 7:53 am)30.48 "Hg (Apr 20, 7:53 am)
Low30 °F (Apr 8, 6:53 am)20% (Apr 17, 4:53 pm)29.79 "Hg (Apr 20, 4:53 pm)
Average57 °F60%30.10 "Hg
* Reported Apr 8 4:53 am — Apr 23 4:53 am, Oberlin, Weather by CustomWeather, © 2017

Note: Actual official high and low records may vary slightly from our data, if they occured in-between our weather recording intervals... More about our weather records

Advertising

Oberlin Weather History for the Previous 24 Hours

Scroll right to see more
 ConditionsComfort  
Time TempWeatherWind HumidityBarometerVisibility
4:53 am
Sun, Apr 23
36 °FClear.No wind82%30.11 "Hg10 mi
3:53 am36 °FClear.No wind85%30.12 "Hg10 mi
2:53 am38 °FClear.No wind83%30.13 "Hg10 mi
1:53 am39 °FClear.3 mph79%30.14 "Hg10 mi
12:53 am40 °FClear.3 mph80%30.16 "Hg10 mi
11:53 pm
Sat, Apr 22
40 °FClear.5 mph83%30.14 "Hg10 mi
10:53 pm41 °FClear.No wind80%30.15 "Hg10 mi
9:53 pm44 °FClear.No wind71%30.14 "Hg10 mi
8:53 pm45 °FClear.3 mph68%30.12 "Hg10 mi
7:53 pm48 °FSunny.6 mph59%30.12 "Hg10 mi
6:53 pm50 °FSunny.8 mph57%30.11 "Hg10 mi
5:53 pm51 °FSunny.10 mph52%30.12 "Hg10 mi
4:53 pm49 °FSunny.12 mph57%30.12 "Hg10 mi
3:53 pm48 °FSunny.13 mph59%30.14 "Hg10 mi
2:53 pm48 °FSunny.12 mph61%30.15 "Hg10 mi
1:53 pm48 °FScattered clouds.17 mph61%30.15 "Hg10 mi
12:53 pm46 °FScattered clouds.14 mph63%30.15 "Hg10 mi
11:53 am45 °FScattered clouds.14 mph68%30.14 "Hg10 mi
10:53 am45 °FPassing clouds.12 mph68%30.12 "Hg10 mi
9:53 am45 °FSunny.14 mph65%30.13 "Hg10 mi
9:19 am44 °FScattered clouds.17 mph68%30.13 "Hg10 mi
8:53 am44 °FPartly sunny.15 mph71%30.13 "Hg10 mi
7:53 am42 °FSunny.13 mph76%30.13 "Hg10 mi
6:53 am42 °FPassing clouds.8 mph76%30.10 "Hg10 mi
6:31 am42 °FPassing clouds.12 mph76%30.06 "Hg10 mi
6:19 am42 °FPassing clouds.13 mph76%30.06 "Hg10 mi
Weather by CustomWeather, © 2017

See weather overviewHow to use our weather pages